Regional Weather Roundup
Issued by NWS Northern Indiana

Home | Current Version | Previous Version | Text Only | Print | Product List | Glossary Off
Versions: 1 2 3 4 5 6 7 8 9 10 11 12 13 14 15 16 17 18 19 20 21 22 23 24 25 26 27 28 29 30 31 32 33 34 35 36 37 38 39 40 41 42 43 44 45 46 47 48 49 50

000
ASUS43 KIWX 011900
RWRIWX

KIWX WEATHER ROUNDUP
NATIONAL WEATHER SERVICE NORTHERN INDIANA
300 PM EDT WED APR 01 2015

NOTE: "FAIR" INDICATES FEW OR NO CLOUDS BELOW 12,000 FEET WITH NO
SIGNIFICANT WEATHER AND/OR OBSTRUCTIONS TO VISIBILITY.

* THESE STATIONS ARE NOT UNDER NWS QUALITY CONTROL. THEY ALSO MAY NOT
  REPORT WEATHER SUCH AS PRECIPITATION OR FOG.

INZ001>027-012000-
NORTHERN INDIANA

CITY           SKY/WX    TMP DP  RH WIND       PRES   REMARKS
GARY*          SUNNY     72  23  16 S12       30.00F
SOUTH BEND     SUNNY     67  33  28 SW6       30.03F
ELKHART*       SUNNY     66  30  26 SW5       30.04F
GOSHEN         SUNNY     66  37  34 SW9G18    30.04F
ANGOLA*        SUNNY     64  37  36 S9        30.05F
FORT WAYNE     SUNNY     65  35  33 S7        30.07F

$$
INZ028>050-012000-
CENTRAL INDIANA

CITY           SKY/WX    TMP DP  RH WIND       PRES   REMARKS
LAFAYETTE      SUNNY     68  34  28 SW9       30.04F
KOKOMO*        SUNNY     66  37  34 S9G16     30.05F
MUNCIE*        SUNNY     65  32  29 S8        30.07F
INDIANAPOLIS   MOSUNNY   67  32  27 SE15      30.05F

$$
MIZ043>046-050>051-056>058-064>065-071>073-077>080-012000-
SOUTHWEST LOWER MICHIGAN

CITY           SKY/WX    TMP DP  RH WIND       PRES   REMARKS
BATTLE CREEK   SUNNY     63  34  33 W14       30.05F
BENTON HARBOR  SUNNY     65  36  34 SE5       30.01F
COLDWATER*     SUNNY     63  32  31 W10       30.05F
HILLSDALE*     SUNNY     63  33  32 NW10      30.06F
HOLLAND        SUNNY     62  37  39 SW7       30.04F
GRAND RAPIDS   MOSUNNY   63  37  38 SW9       30.04F
KALAMAZOO      SUNNY     63  37  38 SW14      30.05F
STURGIS*       SUNNY     63  37  39 S3        30.04F
THREE RIVERS*  FAIR      65  35  33 S7        30.05F

$$
OHZ001>008-015>018-024>025-012000-
NORTHWEST OHIO

CITY           SKY/WX    TMP DP  RH WIND       PRES   REMARKS
DEFIANCE       SUNNY     64  34  32 W9        30.07F
FINDLAY        SUNNY     64  36  35 W12       30.08F
TOLEDO EXPRESS SUNNY     61  37  41 VRB7      30.07F
TOLEDO METCALF SUNNY     61  37  41 SW9       30.09F
LIMA           SUNNY     63  36  36 SW14      30.09F

$$
AND FOR LAKE MICHIGAN COASTAL AND OPEN LAKE BUOY OBSERVATIONS

STATION/POSITION TEMP    WIND        PRES    VSBY  WAVE
                 AIR SEA DIR/SP/G                  HT/PER
                 (F)     (DEG/KT/KT) (MB)    (MI)  (FT/S)
CALUMET HARBOR            80/  6/ 11 1014.7F
MICHIGAN CITY     43      20/ 10/ 12   N/A
BURNS HARBOR      47      50/  4/  7 1016.9S
SAINT JOSEPH      51     350/  3/  5 1018.3S

$$
&&


USA.gov is the U.S. government's official web portal to all federal, state and local government web resources and services.